Regional Weather Roundup
Issued by NWS Upton, NY

Current Version | Previous Version | Graphics & Text | Print | Product List | Glossary Off
Versions: 1 2 3 4 5 6 7 8 9 10 11 12 13 14 15 16 17 18 19 20 21 22 23 24 25 26 27 28 29 30 31 32 33 34 35 36 37 38 39 40 41 42 43 44 45 46 47 48 49 50

000
ASUS41 KOKX 291105
RWROKX

REGIONAL WEATHER ROUNDUP
NATIONAL WEATHER SERVICE NEW YORK NY
700 AM EDT SUN MAY 29 2016

NOTE: "FAIR" INDICATES FEW OR NO CLOUDS BELOW 12,000 FEET WITH NO
SIGNIFICANT WEATHER AND/OR OBSTRUCTIONS TO VISIBILITY.

NYZ071-072-176-178-NJZ106-104-291200-
NEW YORK CITY METRO AREA


CITY           SKY/WX    TMP DP  RH WIND       PRES   REMARKS
CENTRAL PARK   SUNNY     73  56  54 W8G17     30.17R
LAGUARDIA APRT MOSUNNY   75  61  61 S8        30.14R
KENNEDY INTL   MOSUNNY   67  55  65 S9        30.16R
NEWARK/LIBERTY MOSUNNY   71  57  61 SW8       30.14R
BRNX BOT. GARD   N/A     73  55  53 S3        30.17R
TETERBORO      SUNNY     72  55  55 S6        30.13R
$$

NYZ177-179-078>081-291200-
LONG ISLAND NEW YORK

CITY           SKY/WX    TMP DP  RH WIND       PRES   REMARKS
FARMINGDALE    SUNNY     67  53  61 SW6       30.15S
ISLIP          PTSUNNY   68  56  65 SW6       30.15R
SHIRLEY        SUNNY     68  58  70 SW7       30.16R
RIVERHEAD      NOT AVBL
WESTHAMPTON    SUNNY     66  57  72 SW9       30.16S
EAST HAMPTON   FAIR      63  58  83 SW3       30.14S
MONTAUK POINT    N/A     64  58  80 S3        30.16R
$$

NYZ052-065-067-291200-
HUDSON VALLEY

CITY           SKY/WX    TMP DP  RH WIND       PRES   REMARKS
WHITE PLAINS   SUNNY     71  60  68 CALM      30.14R
NEWBURGH       MOSUNNY   72  68  88 W7        30.14R
MONTGOMERY     SUNNY     70  68  93 SW5       30.13R
POUGHKEEPSIE   MOSUNNY   74  66  76 CALM      30.10S
ALBANY         PTSUNNY   71  66  84 S5        30.11R
$$

NJZ001-105-106-008-010-013-015-019>022-104-291200-
NEW JERSEY

CITY           SKY/WX    TMP DP  RH WIND       PRES   REMARKS
NEWARK/LIBERTY MOSUNNY   71  57  61 SW8       30.14R
TETERBORO      SUNNY     72  55  55 S6        30.13R
CALDWELL       SUNNY     70  58  65 VRB3      30.15R
MORRISTOWN     SUNNY     66  61  82 CALM      30.15R
SOMERVILLE     SUNNY     66  61  84 CALM      30.14R
SUSSEX         PTSUNNY   66  65  96 CALM      30.14R FOG
ANDOVER          N/A     68  66  93 CALM      30.15R
TRENTON        SUNNY     67  59  75 SW3       30.16R
MILLVILLE      SUNNY     63  60  90 CALM      30.17R
ATLANTIC CITY  SUNNY     66  62  87 CALM      30.17S
WRIGHTSTOWN    SUNNY     65  59  80 SW5       30.15R
TOMS RIVER     SUNNY    N/A N/A N/A SW5       30.17R
BELMAR         SUNNY     66  58  75 SW6       30.18R
$$

PAZ047>061-062-071-291200-
EASTERN PENNSYLVANIA

CITY           SKY/WX    TMP DP  RH WIND       PRES   REMARKS
PHILADELPHIA   PTSUNNY   67  58  72 S3        30.17R
ALLENTOWN      SUNNY     70  63  78 CALM      30.15R
SCRANTON       SUNNY     69  64  84 E5        30.14S
$$

CTZ002-004>006-009-010-012-RIZ004-006-007-MAZ004-011-015-291200-
SOUTHERN NEW ENGLAND
 IN CT

CITY           SKY/WX    TMP DP  RH WIND       PRES   REMARKS
BRADLEY INTL   MOSUNNY   71  61  70 CALM      30.12R
HARTFORD       SUNNY     73  63  70 CALM      30.12R
DANBURY        SUNNY     72  64  76 CALM      30.14S
WTRBRY/OXFORD  PTSUNNY   70  61  73 CALM      30.16R
BRIDGEPORT     SUNNY     69  57  65 SW6       30.13S
MERIDEN        CLOUDY    71  58  63 S8        30.13R
NEW HAVEN      MOSUNNY   66  54  65 S5        30.13S
CHESTER        PTSUNNY  N/A N/A N/A MISG        N/A
GROTON         SUNNY     63  58  83 S3        30.13S
WILLIMANTIC    PTSUNNY   69  61  75 CALM      30.15R

 IN RI

CITY           SKY/WX    TMP DP  RH WIND       PRES   REMARKS
PROVIDENCE     MOSUNNY   69  58  67 NE3       30.15R
BLOCK ISLAND   PTSUNNY   62  58  86 SW16      30.15R
WESTERLY       MOSUNNY   67  53  61 SW3       30.14S

 IN MA

CITY           SKY/WX    TMP DP  RH WIND       PRES   REMARKS
BOSTON         CLOUDY    58  54  86 N10       30.18R
WORCESTER      CLOUDY    63  60  90 N9        30.18R FOG
WESTFIELD      SUNNY     69  64  84 N6        30.14R
PROVINCETOWN   SUNNY     59  56  89 W12       30.15R
NANTUCKET      MOSUNNY   63  59  87 SW10      30.15R
$$

ANZ330-335-338-340-345-350-353-355-291200-
COASTAL MARINE OBSERVATIONS


STATION/POSITION TIME  SKY/WX   TEMP    WIND        PRES    VSBY  WAVE
                                AIR SEA DIR/SP/G                  HT/PER
                 (UTC)          (F)     (DEG/KT/KT) (MB)    (MI)  (FT/S)
NY HARB ENTRANCE 0950            61 57  200/ 10/ 12 1020.5          2/ 8
20S FIRE ISLAND  0950            62 59  220/ 10/ 12 1020.9          3/ 8
GREAT SOUTH BAY  1000            66 70  250/ 10/ 14   N/A
23 SSW MONTAUK P 1050            60 57  230/ 12/ 14 1020.7          3/ 8
15 E BARNEGAT LI 1022               59                N/A           3/ 8
HUDSON CANYON    0950            61 58              1021.8          3/ 8
KINGS POINT      1000            69 60              1020.1
EXECUTION ROCKS  NOT AVBL
CENTRAL LI SOUND 1000            64     210/  4/  4   N/A           1
EASTERN LI SOUND 1000            59 54   CALM  /  2   N/A
ROBBINS REEF     1000            69     200/  3/  5 1019.9
$$


>>>>>>>>>>>>>>>>>>>>>>>>>>>> KEY <<<<<<<<<<<<<<<<<<<<<<<<<<<
>                                                          <
>     SKY/WX - SKY CONDITION/PRESENT WEATHER               <
>     TMP    - TEMPERATURE IN FAHRENHEIT                   <
>     DP     - DEWPOINT IN FAHRENHEIT                      <
>     RH     - RELATIVE HUMIDITY IN PERCENT                <
>     WIND   - DIRECTION AND SPEED IN MPH                  <
>     PRES   - MEAN SEA LEVEL PRESSURE IN INCHES OF HG     <
>     WCI    - WIND CHILL INDEX                            <
>     VSB    - VISIBILITY IN MILES                         <
>     HX     - HEAT INDEX                                  <
>     TC     - TEMPERATURE IN CELSIUS                      <
>     VRB    - VARIABLE WIND DIRECTION                     <
>                                                          <
>>>>>>>>>>>>>>>>>>>>>>>>>>>> KEY <<<<<<<<<<<<<<<<<<<<<<<<<<<





USA.gov is the U.S. government's official web portal to all federal, state and local government web resources and services.